User: anonymous   Login
Location: Waldport
(44.4270°N, 124.0680°W)
Time: 17:33:59
(UTC-07:00)
Language:

Cosmos 1023 Rocket - Orbit

View from above orbital plane
View from above orbital plane
View from above satellite
View from above satellite

Ground track
Ground track

The orbit data is extracted from the following two-line orbital elements,

1 10962U 78063B   16211.82215709 +.00000038 +00000-0 +19839-4 0  9992
2 10962 074.0798 094.0044 0024235 079.5482 280.8403 14.41036905999248
Epoch (UTC): 29 July 2016 19:43:54
Eccentricity: 0.0024235
inclination: 74.0798°
perigee height: 738 km
apogee height: 772 km
right ascension of ascending node: 94.0044°
argument of perigee: 79.5482°
revolutions per day: 14.41036905
mean anomaly at epoch: 280.8403°
orbit number at epoch: 99924

The dashed part of the orbit path shows where the satellite is in the earth's shadow,  

DLR